FOX-1D (AO-92) (43137 NORAD) Tracking and Keplerian Element Data

This shows tracking and keplerian element data for the satellite.

Feedback or suggestion? Click here.




ElementValue
Catalog43137
NameFOX-1D (AO-92)
Epoch Orbit3296
Epoch Day228.9470494
Epoch Year2018
RAAN291.8032
Inclination97.5289
Eccentricity0.0008004
Argument of Perigee243.3658
Mean Anonmoly116.6758
Mean Motion15.228236
Decay Rate8.33E-06
L11 43137U 18004AC 18228.94704940 .00000833 00000-0 38703-4 0 9998
L22 43137 97.5289 291.8032 0008004 243.3658 116.6758 15.22823600 32961

Live tracking and technical data element details for FOX-1D (AO-92) (NORAD 43137). FOX-1D (AO-92) can be tracked NOW for your location showing map with azimuth and elevation plus other details from your city location.

Track the satellite on the map from your city or location and see movement details for azimuth, elevation, latitude, longitude, range, height, and movement on the map or in text.







IsCatalogInMostPopularTable: catalog: 43137, numindb: 558
Update: records affected: 1



GetName: 43137 FOX-1D (AO-92)

Hit Count: updated at: Fri, 17 Aug 2018 13:20:27 GMT